Home   Weather   Lierbyen   Past weeks

Flag for Norway Past Weather in Lierbyen, Norway — Yesterday and Last 2 Weeks

Now
33 °F

Cool.


Feels Like: 33 °F
Forecast: 21 / 31 °F
Wind: 1 mph from West

Location: Tranby - MADIS Station

Current Time: Jan 24, 2017 at 2:13:53 am

Latest Report: Jan 24, 2017 at 1:44 am


Visibility: N/A

Pressure: 29.19 "Hg

Humidity: 75%

Dew Point: 26 °F

Location of LierbyenLocation

Past Weather in Lierbyen — Graph

°F

Lierbyen Temperature Yesterday

Maximum temperature yesterday: 35 °F (at 10:44 pm)
Minimum temperature yesterday: 23 °F (at 6:28 am)
Average temperature yesterday: 29 °F

High & Low Weather Summary for the Past Weeks

 TemperatureHumidityPressure
High48 °F (Jan 19, 3:36 pm)97% (Jan 9, 7:28 pm)29.51 "Hg (Jan 9, 7:28 pm)
Low16 °F (Jan 16, 1:29 am)66% (Jan 20, 8:37 am)27.62 "Hg (Jan 11, 3:19 pm)
Average31 °F85%28.96 "Hg
* Reported Jan 9 1:26 am — Jan 24 1:14 am, Lierbyen, Weather by CustomWeather, © 2017

Note: Actual official high and low records may vary slightly from our data, if they occured in-between our weather recording intervals... More about our weather records

Advertising

Lierbyen Weather History for the Previous 24 Hours

Scroll right to see more
 ConditionsComfort  
Time TempWeatherWind HumidityBarometerVisibility
1:14 am
Tue, Jan 24
34 °FCool.2 mph73%29.19 "HgN/A
12:14 am34 °FCool.2 mph73%29.18 "HgN/A
11:44 pm
Mon, Jan 23
34 °FCool.2 mph72%29.18 "HgN/A
11:29 pm34 °FCool.3 mph72%29.18 "HgN/A
11:14 pm35 °FCool.1 mph72%29.17 "HgN/A
10:44 pm35 °FCool.2 mph72%29.17 "HgN/A
10:29 pm34 °FCool.3 mph74%29.17 "HgN/A
10:14 pm33 °FCool.2 mph77%29.16 "HgN/A
9:44 pm32 °FCool.3 mph79%29.15 "HgN/A
9:29 pm32 °FCool.3 mph80%29.14 "HgN/A
9:14 pm33 °FCool.2 mph79%29.14 "HgN/A
8:44 pm34 °FCool.2 mph76%29.13 "HgN/A
8:29 pm34 °FCool.3 mph76%29.13 "HgN/A
7:59 pm33 °FCool.2 mph81%29.12 "HgN/A
7:44 pm32 °FCool.3 mph85%29.12 "HgN/A
7:29 pm31 °FCool.1 mph88%29.12 "HgN/A
7:14 pm31 °FCool.1 mph88%29.12 "HgN/A
6:44 pm32 °FCool.3 mph88%29.11 "HgN/A
6:28 pm31 °FCool.1 mph90%29.11 "HgN/A
6:13 pm30 °FQuite cool.3 mph92%29.11 "HgN/A
5:13 pm29 °FQuite cool.3 mph94%29.10 "HgN/A
4:14 pm30 °FQuite cool.3 mph92%29.09 "HgN/A
3:43 pm34 °FCool.3 mph95%29.09 "HgN/A
3:29 pm34 °FCool.2 mph96%29.09 "HgN/A
2:58 pm34 °FCool.1 mph96%29.08 "HgN/A
2:43 pm34 °FCool.4 mph97%29.08 "HgN/A
2:28 pm34 °FCool.3 mph97%29.08 "HgN/A
1:58 pm33 °FCool.3 mph97%29.09 "HgN/A
1:43 pm32 °FCool.3 mph97%29.09 "HgN/A
1:28 pm32 °FCool.2 mph97%29.09 "HgN/A
12:58 pm31 °FCool.1 mph97%29.10 "HgN/A
12:43 pm31 °FCool.1 mph97%29.10 "HgN/A
12:28 pm30 °FQuite cool.2 mph97%29.10 "HgN/A
11:43 am29 °FQuite cool.3 mph96%29.10 "HgN/A
11:28 am28 °FQuite cool.3 mph96%29.11 "HgN/A
10:43 am28 °FQuite cool.1 mph96%29.11 "HgN/A
10:28 am28 °FQuite cool.2 mph96%29.11 "HgN/A
10:13 am27 °FQuite cool.1 mph96%29.10 "HgN/A
9:43 am27 °FQuite cool.No wind96%29.10 "HgN/A
9:28 am26 °FQuite cool.No wind96%29.10 "HgN/A
9:13 am26 °FQuite cool.No wind96%29.10 "HgN/A
8:28 am23 °FQuite cool.No wind94%29.11 "HgN/A
7:28 am23 °FQuite cool.1 mph94%29.11 "HgN/A
6:28 am23 °FQuite cool.No wind94%29.12 "HgN/A
6:13 am24 °FQuite cool.1 mph94%29.12 "HgN/A
5:42 am24 °FQuite cool.No wind95%29.12 "HgN/A
5:27 am24 °FQuite cool.1 mph95%29.12 "HgN/A
4:57 am24 °FQuite cool.No wind94%29.13 "HgN/A
4:43 am24 °FQuite cool.No wind95%29.12 "HgN/A
4:27 am25 °FQuite cool.No wind95%29.12 "HgN/A
3:57 am25 °FQuite cool.2 mph95%29.12 "HgN/A
3:42 am25 °FQuite cool.1 mph95%29.13 "HgN/A
3:12 am25 °FQuite cool.1 mph95%29.13 "HgN/A
2:42 am25 °FQuite cool.3 mph95%29.13 "HgN/A
2:27 am25 °FQuite cool.4 mph95%29.14 "HgN/A
2:12 am25 °FQuite cool.4 mph95%29.14 "HgN/A
Weather by CustomWeather, © 2017

See weather overviewHow to use our weather pages